Time,TemperatureF,DewpointF,PressureIn,WindDirection,WindDirectionDegrees,WindSpeedMPH,WindSpeedGustMPH,Humidity,HourlyPrecipIn,Conditions,Clouds,dailyrainin,SoftwareType,DateUTC
2013-01-08 00:03:00,22.0,17.0,30.20,SSW,202,0.0,1.0,82,0.00,,,0.00,,2013-01-08 05:03:00,
2013-01-08 00:12:00,22.0,17.0,30.20,SSW,202,0.0,1.0,82,0.00,,,0.00,,2013-01-08 05:12:00,
2013-01-08 00:22:00,23.0,18.0,30.19,South,180,0.0,0.0,82,0.00,,,0.00,,2013-01-08 05:22:00,
2013-01-08 00:33:00,23.0,18.0,30.19,SSW,202,0.0,0.0,82,0.00,,,0.00,,2013-01-08 05:33:00,
2013-01-08 00:42:00,23.0,18.0,30.19,SSW,202,0.0,0.0,82,0.00,,,0.00,,2013-01-08 05:42:00,
2013-01-08 00:53:00,23.0,18.0,30.18,South,180,0.0,0.0,82,0.00,,,0.00,,2013-01-08 05:53:00,
2013-01-08 01:02:00,23.0,19.0,30.18,SW,225,0.0,0.0,83,0.00,,,0.00,,2013-01-08 06:02:00,
2013-01-08 01:12:00,23.0,19.0,30.18,SW,225,0.0,0.0,83,0.00,,,0.00,,2013-01-08 06:12:00,
2013-01-08 01:22:00,24.0,20.0,30.18,SSW,202,4.0,4.0,83,0.00,,,0.00,,2013-01-08 06:22:00,
2013-01-08 01:33:00,25.0,21.0,30.18,WSW,247,4.0,4.0,83,0.00,,,0.00,,2013-01-08 06:33:00,
2013-01-08 01:42:00,25.0,21.0,30.18,WSW,247,4.0,4.0,83,0.00,,,0.00,,2013-01-08 06:42:00,
2013-01-08 01:53:00,25.0,20.0,30.18,WSW,247,0.0,0.0,82,0.00,,,0.00,,2013-01-08 06:53:00,
2013-01-08 02:02:00,26.0,21.0,30.20,SSW,202,3.0,3.0,82,0.00,,,0.00,,2013-01-08 07:02:00,
2013-01-08 02:12:00,26.0,21.0,30.20,SSW,202,3.0,3.0,82,0.00,,,0.00,,2013-01-08 07:12:00,
2013-01-08 02:22:00,26.0,21.0,30.20,WSW,247,0.0,3.0,82,0.00,,,0.00,,2013-01-08 07:22:00,
2013-01-08 02:32:00,26.0,21.0,30.21,WSW,247,0.0,0.0,81,0.00,,,0.00,,2013-01-08 07:32:00,
2013-01-08 02:42:00,26.0,21.0,30.21,WSW,247,0.0,0.0,81,0.00,,,0.00,,2013-01-08 07:42:00,
2013-01-08 02:52:00,26.0,21.0,30.21,WSW,247,0.0,0.0,81,0.00,,,0.00,,2013-01-08 07:52:00,
2013-01-08 03:02:00,25.0,20.0,30.22,WSW,247,0.0,0.0,81,0.00,,,0.00,,2013-01-08 08:02:00,
2013-01-08 03:12:00,25.0,20.0,30.22,WSW,247,0.0,0.0,81,0.00,,,0.00,,2013-01-08 08:12:00,
2013-01-08 03:22:00,24.0,19.0,30.22,WSW,247,0.0,0.0,80,0.00,,,0.00,,2013-01-08 08:22:00,
2013-01-08 03:32:00,23.0,18.0,30.21,WSW,247,0.0,0.0,80,0.00,,,0.00,,2013-01-08 08:32:00,
2013-01-08 03:42:00,23.0,18.0,30.21,WSW,247,0.0,0.0,80,0.00,,,0.00,,2013-01-08 08:42:00,
2013-01-08 03:52:00,22.0,17.0,30.21,WSW,247,0.0,0.0,80,0.00,,,0.00,,2013-01-08 08:52:00,
2013-01-08 04:02:00,22.0,17.0,30.21,WSW,247,0.0,0.0,81,0.00,,,0.00,,2013-01-08 09:02:00,
2013-01-08 04:12:00,21.0,16.0,30.21,SW,225,0.0,0.0,80,0.00,,,0.00,,2013-01-08 09:12:00,
2013-01-08 04:22:00,21.0,16.0,30.21,SW,225,0.0,0.0,80,0.00,,,0.00,,2013-01-08 09:22:00,
2013-01-08 04:32:00,21.0,16.0,30.21,SSW,202,0.0,0.0,81,0.00,,,0.00,,2013-01-08 09:32:00,
2013-01-08 04:42:00,21.0,16.0,30.21,SSW,202,0.0,0.0,81,0.00,,,0.00,,2013-01-08 09:42:00,
2013-01-08 04:52:00,21.0,16.0,30.21,SSW,202,0.0,0.0,81,0.00,,,0.00,,2013-01-08 09:52:00,
2013-01-08 05:02:00,20.0,15.0,30.20,SSW,202,0.0,0.0,81,0.00,,,0.00,,2013-01-08 10:02:00,
2013-01-08 05:12:00,20.0,15.0,30.20,SSW,202,0.0,0.0,81,0.00,,,0.00,,2013-01-08 10:12:00,
2013-01-08 05:22:00,20.0,15.0,30.21,SSW,202,0.0,0.0,81,0.00,,,0.00,,2013-01-08 10:22:00,
2013-01-08 05:33:00,20.0,15.0,30.20,SSW,202,0.0,0.0,81,0.00,,,0.00,,2013-01-08 10:33:00,
2013-01-08 05:42:00,20.0,15.0,30.20,SSW,202,0.0,0.0,81,0.00,,,0.00,,2013-01-08 10:42:00,
2013-01-08 05:52:00,20.0,15.0,30.20,SSW,202,0.0,0.0,82,0.00,,,0.00,,2013-01-08 10:52:00,
2013-01-08 06:02:00,20.0,15.0,30.20,SSW,202,0.0,0.0,82,0.00,,,0.00,,2013-01-08 11:02:00,
2013-01-08 06:12:00,20.0,15.0,30.20,SSW,202,0.0,0.0,82,0.00,,,0.00,,2013-01-08 11:12:00,
2013-01-08 06:22:00,20.0,15.0,30.21,North,-999,-999.0,-999.0,82,0.00,,,0.00,,2013-01-08 11:22:00,
2013-01-08 06:33:00,19.0,14.0,30.21,SSW,202,0.0,0.0,82,0.00,,,0.00,,2013-01-08 11:33:00,
2013-01-08 06:42:00,19.0,14.0,30.21,SSW,202,0.0,0.0,82,0.00,,,0.00,,2013-01-08 11:42:00,
2013-01-08 06:53:00,19.0,15.0,30.21,SW,225,0.0,0.0,83,0.00,,,0.00,,2013-01-08 11:53:00,
2013-01-08 07:03:00,19.0,15.0,30.20,SW,225,0.0,0.0,83,0.00,,,0.00,,2013-01-08 12:03:00,
2013-01-08 07:12:00,19.0,15.0,30.20,SW,225,0.0,0.0,83,0.00,,,0.00,,2013-01-08 12:12:00,
2013-01-08 07:22:00,19.0,15.0,30.21,SW,225,0.0,0.0,83,0.00,,,0.00,,2013-01-08 12:22:00,
2013-01-08 07:33:00,19.0,15.0,30.21,SW,225,0.0,0.0,83,0.00,,,0.00,,2013-01-08 12:33:00,
2013-01-08 07:42:00,19.0,15.0,30.21,SW,225,0.0,0.0,83,0.00,,,0.00,,2013-01-08 12:42:00,
2013-01-08 07:53:00,20.0,16.0,30.21,SW,225,0.0,0.0,83,0.00,,,0.00,,2013-01-08 12:53:00,
2013-01-08 08:03:00,20.0,16.0,30.22,SW,225,0.0,0.0,83,0.00,,,0.00,,2013-01-08 13:03:00,
2013-01-08 08:12:00,20.0,16.0,30.22,SW,225,0.0,0.0,83,0.00,,,0.00,,2013-01-08 13:12:00,
2013-01-08 08:22:00,19.0,15.0,30.22,SW,225,0.0,0.0,83,0.00,,,0.00,,2013-01-08 13:22:00,
2013-01-08 08:33:00,18.0,14.0,30.23,SW,225,0.0,0.0,83,0.00,,,0.00,,2013-01-08 13:33:00,
2013-01-08 08:43:00,18.0,14.0,30.23,SW,225,0.0,0.0,83,0.00,,,0.00,,2013-01-08 13:43:00,
2013-01-08 08:52:00,18.0,14.0,30.23,SW,225,0.0,0.0,83,0.00,,,0.00,,2013-01-08 13:52:00,
2013-01-08 09:02:00,18.0,14.0,30.25,SW,225,0.0,0.0,83,0.00,,,0.00,,2013-01-08 14:02:00,
2013-01-08 09:12:00,18.0,14.0,30.25,SW,225,0.0,0.0,83,0.00,,,0.00,,2013-01-08 14:12:00,
2013-01-08 09:23:00,18.0,14.0,30.25,SW,225,0.0,0.0,83,0.00,,,0.00,,2013-01-08 14:23:00,
2013-01-08 09:33:00,19.0,15.0,30.25,SW,225,0.0,0.0,84,0.00,,,0.00,,2013-01-08 14:33:00,
2013-01-08 09:43:00,19.0,15.0,30.25,SW,225,0.0,0.0,84,0.00,,,0.00,,2013-01-08 14:43:00,
2013-01-08 09:53:00,22.0,18.0,30.26,SW,225,0.0,0.0,86,0.00,,,0.00,,2013-01-08 14:53:00,
2013-01-08 10:03:00,28.0,24.0,30.26,SW,225,0.0,0.0,86,0.00,,,0.00,,2013-01-08 15:03:00,
2013-01-08 10:12:00,28.0,24.0,30.26,SW,225,0.0,0.0,86,0.00,,,0.00,,2013-01-08 15:12:00,
2013-01-08 10:22:00,30.0,25.0,30.26,WSW,247,0.0,0.0,83,0.00,,,0.00,,2013-01-08 15:22:00,
2013-01-08 10:33:00,31.0,26.0,30.27,SW,225,0.0,0.0,80,0.00,,,0.00,,2013-01-08 15:33:00,
2013-01-08 10:43:00,31.0,26.0,30.27,SW,225,0.0,0.0,80,0.00,,,0.00,,2013-01-08 15:43:00,
2013-01-08 10:53:00,31.0,26.0,30.27,WSW,247,1.0,1.0,80,0.00,,,0.00,,2013-01-08 15:53:00,
2013-01-08 11:03:00,31.0,25.0,30.27,SSE,157,0.0,0.0,78,0.00,,,0.00,,2013-01-08 16:03:00,
2013-01-08 11:12:00,31.0,25.0,30.27,SSE,157,0.0,0.0,78,0.00,,,0.00,,2013-01-08 16:12:00,
2013-01-08 11:22:00,31.0,25.0,30.27,SSE,157,0.0,0.0,78,0.00,,,0.00,,2013-01-08 16:22:00,
2013-01-08 11:34:00,32.0,26.0,30.26,WSW,247,0.0,2.0,78,0.00,,,0.00,,2013-01-08 16:34:00,
2013-01-08 11:42:00,32.0,26.0,30.26,WSW,247,0.0,2.0,78,0.00,,,0.00,,2013-01-08 16:42:00,
2013-01-08 11:52:00,32.0,26.0,30.25,SSE,157,0.0,0.0,77,0.00,,,0.00,,2013-01-08 16:52:00,
2013-01-08 12:03:00,32.0,26.0,30.26,SE,135,0.0,1.0,77,0.00,,,0.00,,2013-01-08 17:03:00,
2013-01-08 12:13:00,32.0,26.0,30.26,SE,135,0.0,1.0,77,0.00,,,0.00,,2013-01-08 17:13:00,
2013-01-08 12:23:00,32.0,25.0,30.24,SSE,157,0.0,0.0,76,0.00,,,0.00,,2013-01-08 17:23:00,
2013-01-08 12:33:00,31.0,24.0,30.24,SSE,157,0.0,0.0,75,0.00,,,0.00,,2013-01-08 17:33:00,
2013-01-08 12:43:00,31.0,24.0,30.24,SSE,157,0.0,0.0,75,0.00,,,0.00,,2013-01-08 17:43:00,
2013-01-08 12:54:00,30.0,23.0,30.23,SSE,157,0.0,0.0,74,0.00,,,0.00,,2013-01-08 17:54:00,
2013-01-08 13:03:00,30.0,23.0,30.23,SSE,157,0.0,0.0,74,0.00,,,0.00,,2013-01-08 18:03:00,
2013-01-08 13:13:00,30.0,23.0,30.23,SSE,157,0.0,0.0,74,0.00,,,0.00,,2013-01-08 18:13:00,
2013-01-08 13:23:00,30.0,23.0,30.23,SW,225,2.0,2.0,74,0.00,,,0.00,,2013-01-08 18:23:00,
2013-01-08 13:33:00,31.0,23.0,30.23,SSE,157,0.0,1.0,73,0.00,,,0.00,,2013-01-08 18:33:00,
2013-01-08 13:43:00,31.0,23.0,30.23,SSE,157,0.0,1.0,73,0.00,,,0.00,,2013-01-08 18:43:00,
2013-01-08 13:53:00,31.0,23.0,30.22,WSW,238,2.0,2.0,73,0.00,,,0.00,,2013-01-08 18:53:00,
2013-01-08 14:03:00,31.0,23.0,30.22,SW,225,0.0,2.0,72,0.00,,,0.00,,2013-01-08 19:03:00,
2013-01-08 14:12:00,31.0,23.0,30.22,SW,225,0.0,2.0,72,0.00,,,0.00,,2013-01-08 19:12:00,
2013-01-08 14:23:00,31.0,23.0,30.21,SSE,157,1.0,1.0,72,0.00,,,0.00,,2013-01-08 19:23:00,
2013-01-08 14:33:00,31.0,23.0,30.21,SSE,157,4.0,6.0,71,0.00,,,0.00,,2013-01-08 19:33:00,
2013-01-08 14:42:00,31.0,23.0,30.21,SSE,157,4.0,6.0,71,0.00,,,0.00,,2013-01-08 19:42:00,
2013-01-08 14:53:00,31.0,23.0,30.21,SSE,157,2.0,5.0,71,0.00,,,0.00,,2013-01-08 19:53:00,
2013-01-08 15:03:00,32.0,24.0,30.21,SSE,157,2.0,2.0,71,0.00,,,0.00,,2013-01-08 20:03:00,
2013-01-08 15:12:00,32.0,24.0,30.21,SSE,157,2.0,2.0,71,0.00,,,0.00,,2013-01-08 20:12:00,
2013-01-08 15:23:00,32.0,24.0,30.21,SE,135,2.0,3.0,71,0.00,,,0.00,,2013-01-08 20:23:00,
2013-01-08 15:33:00,33.0,25.0,30.21,SE,135,4.0,4.0,71,0.00,,,0.00,,2013-01-08 20:33:00,
2013-01-08 15:43:00,33.0,25.0,30.21,SE,135,4.0,4.0,71,0.00,,,0.00,,2013-01-08 20:43:00,
2013-01-08 15:54:00,34.0,26.0,30.21,SSE,157,1.0,1.0,71,0.00,,,0.00,,2013-01-08 20:54:00,
2013-01-08 16:03:00,34.0,26.0,30.21,SSE,157,2.0,3.0,71,0.00,,,0.00,,2013-01-08 21:03:00,
2013-01-08 16:13:00,34.0,26.0,30.21,SSE,157,2.0,3.0,71,0.00,,,0.00,,2013-01-08 21:13:00,
2013-01-08 16:23:00,34.0,26.0,30.22,SSE,157,0.0,0.0,72,0.00,,,0.00,,2013-01-08 21:23:00,
2013-01-08 16:33:00,35.0,27.0,30.22,SE,135,1.0,1.0,72,0.00,,,0.00,,2013-01-08 21:33:00,
2013-01-08 16:43:00,35.0,27.0,30.22,SE,135,1.0,1.0,72,0.00,,,0.00,,2013-01-08 21:43:00,
2013-01-08 16:53:00,36.0,28.0,30.21,SE,135,0.0,2.0,71,0.00,,,0.00,,2013-01-08 21:53:00,
2013-01-08 17:03:00,36.0,28.0,30.21,SSE,157,0.0,1.0,72,0.00,,,0.00,,2013-01-08 22:03:00,
2013-01-08 17:12:00,36.0,28.0,30.21,SSE,157,0.0,1.0,72,0.00,,,0.00,,2013-01-08 22:12:00,
2013-01-08 17:23:00,37.0,29.0,30.21,SE,135,0.0,5.0,72,0.00,,,0.00,,2013-01-08 22:23:00,
2013-01-08 17:33:00,36.0,28.0,30.21,SSE,157,0.0,2.0,72,0.00,,,0.00,,2013-01-08 22:33:00,
2013-01-08 17:43:00,36.0,28.0,30.21,SSE,157,0.0,2.0,72,0.00,,,0.00,,2013-01-08 22:43:00,
2013-01-08 17:53:00,35.0,27.0,30.20,SE,135,0.0,0.0,73,0.00,,,0.00,,2013-01-08 22:53:00,
2013-01-08 18:02:00,35.0,27.0,30.20,SSE,157,0.0,2.0,73,0.00,,,0.00,,2013-01-08 23:02:00,
2013-01-08 18:13:00,35.0,27.0,30.20,SSE,157,0.0,2.0,73,0.00,,,0.00,,2013-01-08 23:13:00,
2013-01-08 18:22:00,34.0,26.0,30.20,SSE,157,0.0,0.0,73,0.00,,,0.00,,2013-01-08 23:22:00,
2013-01-08 18:33:00,33.0,25.0,30.20,SSE,157,0.0,0.0,73,0.00,,,0.00,,2013-01-08 23:33:00,
2013-01-08 18:43:00,33.0,25.0,30.20,SSE,157,0.0,0.0,73,0.00,,,0.00,,2013-01-08 23:43:00,
2013-01-08 18:53:00,32.0,25.0,30.21,SSE,157,0.0,0.0,74,0.00,,,0.00,,2013-01-08 23:53:00,
2013-01-08 19:03:00,31.0,24.0,30.21,SSE,157,0.0,0.0,74,0.00,,,0.00,,2013-01-09 00:03:00,
2013-01-08 19:12:00,31.0,24.0,30.21,SSE,157,0.0,0.0,74,0.00,,,0.00,,2013-01-09 00:12:00,
2013-01-08 19:22:00,30.0,23.0,30.21,SSW,202,0.0,0.0,75,0.00,,,0.00,,2013-01-09 00:22:00,
2013-01-08 19:33:00,30.0,23.0,30.21,South,180,0.0,0.0,76,0.00,,,0.00,,2013-01-09 00:33:00,
2013-01-08 19:42:00,30.0,23.0,30.21,South,180,0.0,0.0,76,0.00,,,0.00,,2013-01-09 00:42:00,
2013-01-08 19:53:00,30.0,24.0,30.20,SSE,157,0.0,0.0,78,0.00,,,0.00,,2013-01-09 00:53:00,
2013-01-08 20:02:00,31.0,25.0,30.20,SSE,157,0.0,0.0,78,0.00,,,0.00,,2013-01-09 01:02:00,
2013-01-08 20:12:00,31.0,25.0,30.20,SSE,157,0.0,0.0,78,0.00,,,0.00,,2013-01-09 01:12:00,
2013-01-08 20:22:00,31.0,25.0,30.20,SSW,202,0.0,0.0,78,0.00,,,0.00,,2013-01-09 01:22:00,
2013-01-08 20:33:00,31.0,25.0,30.20,South,180,0.0,0.0,78,0.00,,,0.00,,2013-01-09 01:33:00,
2013-01-08 20:42:00,31.0,25.0,30.20,South,180,0.0,0.0,78,0.00,,,0.00,,2013-01-09 01:42:00,
2013-01-08 20:52:00,31.0,25.0,30.21,SSE,157,0.0,0.0,79,0.00,,,0.00,,2013-01-09 01:52:00,
2013-01-08 21:02:00,31.0,25.0,30.21,SSE,157,5.0,5.0,79,0.00,,,0.00,,2013-01-09 02:02:00,
2013-01-08 21:12:00,31.0,25.0,30.21,SSE,157,5.0,5.0,79,0.00,,,0.00,,2013-01-09 02:12:00,
2013-01-08 21:22:00,31.0,25.0,30.21,SSE,157,0.0,0.0,79,0.00,,,0.00,,2013-01-09 02:22:00,
2013-01-08 21:33:00,30.0,24.0,30.20,SSE,157,0.0,0.0,79,0.00,,,0.00,,2013-01-09 02:33:00,
2013-01-08 21:43:00,30.0,24.0,30.20,SSE,157,0.0,0.0,79,0.00,,,0.00,,2013-01-09 02:43:00,
2013-01-08 21:53:00,30.0,24.0,30.18,SSE,157,2.0,2.0,79,0.00,,,0.00,,2013-01-09 02:53:00,
2013-01-08 22:03:00,30.0,25.0,30.19,SE,135,0.0,0.0,80,0.00,,,0.00,,2013-01-09 03:03:00,
2013-01-08 22:12:00,30.0,25.0,30.19,SE,135,0.0,0.0,80,0.00,,,0.00,,2013-01-09 03:12:00,
2013-01-08 22:22:00,30.0,25.0,30.18,SSE,157,0.0,0.0,80,0.00,,,0.00,,2013-01-09 03:22:00,
2013-01-08 22:33:00,30.0,24.0,30.18,SSE,157,0.0,0.0,79,0.00,,,0.00,,2013-01-09 03:33:00,
2013-01-08 22:43:00,30.0,24.0,30.18,SSE,157,0.0,0.0,79,0.00,,,0.00,,2013-01-09 03:43:00,
2013-01-08 22:53:00,29.0,23.0,30.18,SSE,157,0.0,0.0,79,0.00,,,0.00,,2013-01-09 03:53:00,
2013-01-08 23:02:00,29.0,23.0,30.19,SSE,157,0.0,0.0,79,0.00,,,0.00,,2013-01-09 04:02:00,
2013-01-08 23:12:00,29.0,23.0,30.19,SSE,157,0.0,0.0,79,0.00,,,0.00,,2013-01-09 04:12:00,
2013-01-08 23:22:00,29.0,24.0,30.19,SSE,157,0.0,0.0,80,0.00,,,0.00,,2013-01-09 04:22:00,
2013-01-08 23:32:00,28.0,23.0,30.18,SSE,157,0.0,0.0,80,0.00,,,0.00,,2013-01-09 04:32:00,
2013-01-08 23:42:00,28.0,23.0,30.19,SSE,157,0.0,0.0,80,0.00,,,0.00,,2013-01-09 04:42:00,
2013-01-08 23:52:00,28.0,23.0,30.19,SSE,157,0.0,0.0,80,0.00,,,0.00,,2013-01-09 04:52:00,